Home   Weather   Aalborg   Past weeks
Flag for Denmark

Past Weather in Aalborg, Denmark — Yesterday and Last 2 Weeks

Now
72 °F

Passing clouds.


Feels Like: 77 °F
Forecast: 70 / 52 °F
Wind: 10 mph from North

Location: Aalborg Airport

Current Time: Jul 16, 2019 at 2:44:04 pm

Latest Report: Jul 16, 2019 at 1:50 pm


Visibility: N/A

Pressure: 29.89 "Hg

Humidity: 44%

Dew Point: 48 °F

Location of AalborgLocation

Past Weather in Aalborg — Graph

°F

Aalborg Temperature Yesterday

Maximum temperature yesterday: 66 °F (at 3:50 pm)
Minimum temperature yesterday: 55 °F (at 2:50 am)
Average temperature yesterday: 60 °F

High & Low Weather Summary for the Past Weeks

 TemperatureHumidityPressure
High72 °F (Jul 11, 1:20 pm)100% (Jul 1, 11:04 pm)30.07 "Hg (Jul 1, 11:04 pm)
Low46 °F (Jul 11, 4:52 am)46% (Jul 10, 1:50 pm)29.47 "Hg (Jul 6, 8:07 pm)
Average59 °F79%29.87 "Hg
* Reported Jul 1 1:20 pm — Jul 16 1:20 pm, Aalborg. Weather by CustomWeather, © 2019

Note: Actual official high and low records may vary slightly from our data, if they occured in-between our weather recording intervals... More about our weather records

Advertising

Aalborg Weather History for the Previous 24 Hours

Scroll right to see more
 ConditionsComfort  
Time TempWeatherWind HumidityBarometerVisibility
1:20 pm
Tue, Jul 16
70 °FPassing clouds.9 mph46%29.89 "HgN/A
12:50 pm70 °FPassing clouds.7 mph53%29.89 "HgN/A
12:20 pm68 °FScattered clouds.8 mph60%29.89 "HgN/A
11:50 am68 °FPassing clouds.7 mph60%29.89 "HgN/A
11:20 am66 °FPassing clouds.6 mph64%29.89 "HgN/A
10:50 am66 °FPassing clouds.7 mph64%29.89 "HgN/A
10:20 am63 °FPartly sunny.5 mph77%29.89 "HgN/A
9:50 am63 °FBroken clouds.6 mph77%29.89 "HgN/A
9:20 am61 °FScattered clouds.6 mph83%29.89 "HgN/A
8:50 am61 °FPartly sunny.5 mph83%29.89 "HgN/A
8:20 am59 °FMore clouds than sun.5 mph82%29.86 "HgN/A
7:56 am59 °FPartly sunny.2 mph82%29.86 "HgN/A
7:20 am59 °FCool.2 mph82%29.86 "HgN/A
6:50 am59 °FCool.3 mph82%29.83 "HgN/A
6:20 am57 °FPassing clouds.7 mph94%29.83 "HgN/A
5:50 am57 °FMostly cloudy.6 mph94%29.83 "HgN/A
5:36 am57 °FPartly sunny.1 mph94%29.83 "HgN/A
5:20 am57 °FMore clouds than sun.1 mph94%29.83 "HgN/A
4:50 am57 °FMostly cloudy.No wind94%29.86 "HgN/A
4:20 am57 °FMostly cloudy.2 mph94%29.83 "HgN/A
3:57 am57 °FMostly cloudy.3 mph94%29.86 "HgN/A
3:20 am57 °FMostly cloudy.7 mph94%29.86 "HgN/A
2:57 am57 °FMostly cloudy.8 mph100%29.86 "HgN/A
2:20 am57 °FPassing clouds.9 mph100%29.86 "Hg6 mi
1:50 am57 °FPassing clouds.8 mph100%29.86 "Hg5 mi
1:37 am57 °FPartly cloudy.2 mph100%29.86 "Hg6 mi
1:25 am55 °FPassing clouds.1 mph100%29.86 "Hg4 mi
1:02 am57 °FClear.1 mph94%29.86 "HgN/A
12:50 am57 °FFog.1 mph94%29.86 "Hg1 mi
12:32 am57 °FFog.1 mph94%29.86 "Hg1 mi
12:24 am57 °FPassing clouds.2 mph94%29.86 "Hg3 mi
11:50 pm
Mon, Jul 15
57 °FCool.3 mph94%29.86 "HgN/A
11:20 pm57 °FCool.2 mph94%29.86 "HgN/A
10:50 pm57 °FCool.3 mph94%29.86 "HgN/A
10:20 pm57 °FCool.3 mph94%29.89 "HgN/A
9:50 pm59 °FCool.2 mph88%29.89 "HgN/A
9:20 pm61 °FCool.6 mph88%29.89 "HgN/A
8:50 pm63 °FPassing clouds.9 mph83%29.89 "HgN/A
8:20 pm66 °FPassing clouds.5 mph68%29.86 "HgN/A
7:50 pm66 °FPassing clouds.3 mph68%29.86 "HgN/A
7:20 pm66 °FPassing clouds.3 mph68%29.86 "HgN/A
6:50 pm66 °FScattered clouds.5 mph68%29.86 "HgN/A
6:20 pm66 °FBroken clouds.6 mph73%29.86 "HgN/A
5:50 pm66 °FBroken clouds.6 mph73%29.86 "HgN/A
5:20 pm64 °FBroken clouds.8 mph78%29.86 "HgN/A
4:50 pm66 °FBroken clouds.8 mph73%29.86 "HgN/A
4:20 pm66 °FBroken clouds.8 mph73%29.86 "HgN/A
3:50 pm66 °FBroken clouds.9 mph73%29.86 "HgN/A
3:20 pm64 °FMostly cloudy.9 mph73%29.86 "HgN/A
2:50 pm64 °FBroken clouds.9 mph73%29.86 "HgN/A
2:20 pm64 °FPartly sunny.6 mph73%29.86 "HgN/A
Weather by CustomWeather, © 2019

See weather overview

LIVE PARTIAL LUNAR ECLIPSE – Watch the eclipse as it happens